Home > Time Zones > World Clock > Weather > Norway > Moss > Past weeks

Flag Weather past 2 weeks in Moss, Norway

Now
30 °F

Ice fog.


Feels Like: 24 °F
Forecast: 33 / 37 °F
Wind: 6 mph from North

Location: Rygge

Current Time: Nov 27, 2014 at 7:54:21 AM

Latest Report: Nov 27, 2014 at 7:20 AM


Visibility: 3 mi

Pressure: 30.21 "Hg

Humidity: 100%

Dew point: 30 °F

Location of MossLocation

Historic Weather in Moss — Graph

°F

Moss temperature yesterday

Maximum temperature yesterday: 34 °F (at 11:50 AM)
Minimum temperature yesterday: 28 °F (at 8:20 AM)
Average temperature yesterday: 31 °F

Past Weeks' High & Low Weather Summary

 TemperatureHumidityPressure
High46 °F (Nov 12, 12:50 PM)100% (Nov 12, 6:50 AM)30.51 "Hg (Nov 12, 6:50 AM)
Low28 °F (Nov 25, 9:50 PM)76% (Nov 12, 8:20 PM)29.68 "Hg (Nov 24, 5:50 AM)
Average39 °F93%30.20 "Hg
* Reported Nov 12 6:20 AM — Nov 27 6:20 AM, Moss, Weather by CustomWeather, © 2014

Note: Actual official high and low records may vary slightly from our data, if they occured in-between our weather recording intervals... More about our weather records

Advertising

Moss weather history for previous 24 hours

 ConditionsComfort  
Time TempWeatherWind HumidityBarometerVisibility
6:20 AM
Nov 27
30 °FPassing clouds.6 mph100%30.21 "Hg3 mi
5:50 AM30 °FIce fog.5 mph100%30.21 "Hg3 mi
5:20 AM30 °FIce fog.6 mph100%30.21 "Hg3 mi
4:50 AM30 °FIce fog.6 mph100%30.21 "Hg3 mi
4:20 AM30 °FIce fog.6 mph100%30.21 "Hg2 mi
3:50 AM30 °FIce fog.6 mph100%30.21 "Hg3 mi
3:20 AM30 °FIce fog.7 mph100%30.21 "Hg2 mi
2:50 AM30 °FIce fog.6 mph100%30.24 "Hg2 mi
2:20 AM30 °FIce fog.5 mph100%30.24 "Hg3 mi
1:50 AM30 °FLow clouds.5 mph100%30.24 "Hg4 mi
1:27 AM30 °FLow clouds.5 mph100%30.24 "Hg4 mi
12:50 AM30 °FLow clouds.6 mph100%30.24 "Hg6 mi
12:12 AM30 °FLow clouds.5 mph100%30.24 "Hg6 mi
11:50 PM
Nov 26
30 °FLow clouds.5 mph100%30.24 "HgN/A
11:20 PM28 °FPassing clouds.2 mph93%30.27 "HgN/A
10:50 PM28 °FPassing clouds.3 mph93%30.27 "HgN/A
10:20 PM28 °FPassing clouds.3 mph93%30.27 "HgN/A
9:50 PM28 °FClear.3 mph100%30.27 "Hg10 mi
9:20 PM28 °FClear.3 mph93%30.27 "Hg10 mi
8:50 PM28 °FClear.5 mph93%30.27 "Hg10 mi
7:50 PM28 °FClear.5 mph100%30.27 "Hg10 mi
7:20 PM30 °FClear.3 mph93%30.27 "Hg10 mi
6:50 PM30 °FClear.6 mph93%30.27 "Hg10 mi
6:20 PM30 °FClear.6 mph100%30.27 "Hg10 mi
5:50 PM30 °FClear.6 mph100%30.27 "Hg10 mi
5:20 PM30 °FClear.5 mph100%30.27 "Hg10 mi
4:50 PM30 °FClear.5 mph100%30.27 "Hg10 mi
4:20 PM32 °FClear.7 mph93%30.27 "Hg10 mi
3:50 PM32 °FClear.6 mph100%30.27 "Hg10 mi
3:20 PM34 °FSunny.7 mph93%30.27 "Hg10 mi
2:50 PM34 °FSunny.6 mph93%30.27 "Hg10 mi
2:20 PM34 °FSunny.6 mph93%30.30 "Hg10 mi
1:50 PM34 °FSunny.7 mph93%30.30 "Hg10 mi
1:20 PM34 °FSunny.6 mph93%30.30 "Hg10 mi
12:50 PM34 °FSunny.6 mph93%30.30 "Hg10 mi
12:20 PM34 °FPassing clouds.6 mph93%30.30 "HgN/A
11:50 AM34 °FSunny.7 mph93%30.30 "Hg10 mi
11:20 AM32 °FSunny.8 mph93%30.33 "Hg10 mi
10:50 AM32 °FSunny.5 mph93%30.30 "Hg10 mi
10:20 AM30 °FPassing clouds.3 mph100%30.30 "HgN/A
9:50 AM30 °FSunny.7 mph93%30.30 "Hg10 mi
9:20 AM30 °FSunny.5 mph93%30.30 "Hg10 mi
8:50 AM28 °FSunny.6 mph100%30.30 "Hg10 mi
8:20 AM28 °FClear.5 mph100%30.30 "Hg10 mi
7:50 AM30 °FClear.7 mph93%30.30 "Hg10 mi
7:20 AM30 °FClear.7 mph93%30.30 "Hg10 mi
Weather by CustomWeather, © 2014

See weather overviewHow to use our weather pages